Regional Weather Roundup
Issued by NWS Charleston, SC

Current Version | Previous Version | Text Only | Print | Product List | Glossary Off
Versions: 1 2 3 4 5 6 7 8 9 10 11 12 13 14 15 16 17 18 19 20 21 22 23 24 25 26 27 28 29 30 31 32 33 34 35 36 37 38 39 40 41 42 43 44 45 46 47 48 49 50

000
ASUS42 KCHS 222327
RWRCHS

Regional Weather Roundup
National Weather Service Charleston SC
700 PM EDT TUE MAY 22 2018

NOTE: "fair" indicates few or no clouds below 12,000 feet with no
significant weather and/or obstructions to visibility.

Not all stations are quality controlled. Use data with caution,
especially dewpoint observations.

SCZ027-030-031-034>040-042>050-230000-
...Southeast South Carolina...

CITY           SKY/WX    TMP DP  RH WIND       PRES   REMARKS
N Charleston   FAIR      80  68  66 S13       30.07S
Waterfront Prk   N/A     79  70  74 S10       29.92F
Mount Pleasant FAIR      79  70  73 S10       30.09R
Johns Island   CLOUDY    77  70  78 S13       30.08S
Pinopolis        N/A     79  72  78 VRB3      30.01S
Moncks Corner  FAIR      75  70  83 CALM      30.08R
Summerville    FAIR      79  68  69 S3        30.09R
Beaufort MCAS  FAIR      80  74  81 S6        30.07S
Beaufort Arpt  FAIR      77  70  78 S8        30.07S
Hilton Head Is MOSUNNY   77  72  83 S6G14     30.09S
Walterboro     FAIR      79  68  69 SE6       30.08S
Allendale      FAIR      75  73  94 CALM      30.05S

...Southern Midlands and Pee Dee...

CITY           SKY/WX    TMP DP  RH WIND       PRES   REMARKS
Georgetown     MOCLDY    77  75  94 S6        30.09S
Kingstree      MOCLDY    77  70  78 CALM      30.07S
Orangeburg     FAIR      76  67  73 SW6       30.08R
Barnwell       FAIR      75  72  88 SE6       30.06F
Aiken          FAIR      73  68  83 SE5       30.10S
Manning        FAIR      73  66  78 CALM      30.07S
Columbia       FAIR      79  69  71 S9        30.06R
Sumter         PTSUNNY   76  66  71 S12       30.05S
Florence       FAIR      81  68  64 SW9       30.06F
Myrtle Beach   CLOUDY    77  72  84 S10       30.09F
N Myrtle Beach PTSUNNY   77  72  84 S9        30.08S

$$

GAZ063-065-086>088-099>101-113>116-118-119-134>141-150-230000-
...Southeast Georgia...

CITY           SKY/WX    TMP DP  RH WIND       PRES   REMARKS
Savannah Arpt  PTSUNNY   79  71  76 S15       30.06F
Hunter AAF     PTSUNNY   78  71  77 SE10      30.04F
Fort Stewart   FAIR      80  69  68 SE13      30.03S
Statesboro     FAIR      79  70  74 S8        30.05S
Sylvania       FAIR      78  73  86 CALM      30.06S
Claxton        FAIR      82  72  71 E5        30.05R

...CSRA, Central and far Southeast Georgia...

CITY           SKY/WX    TMP DP  RH WIND       PRES   REMARKS
Thomson        FAIR      73  71  93 CALM      30.10F
Augusta-Bush   LGT RAIN  76  71  85 SE5       30.04S
Augusta-Daniel LGT RAIN  74  72  93 VRB3      30.06R FOG
Swainsboro     FAIR      81  72  74 CALM      30.05S
Vidalia        LGT RAIN  79  72  78 SW3       30.05R
Eastman        CLOUDY    77  62  59 W5G20     30.07R THUNDER
Hazlehurst       N/A     79  71  75 CALM      30.03R THUNDER
Alma           LGT RAIN  73  70  90 CALM      30.03F
Waycross       FAIR      79  71  77 SE8       30.04R
Jesup          FAIR      81  70  69 CALM      30.06R HAZE
Baxley         FAIR      79  73  83 S7        30.04R THUNDER
Brunswick      FAIR      79  70  73 SE13      30.06F
Saint Simons   FAIR      79  74  84 SE9G17    30.06S

$$

SCZ027-028-034-036>038-045-046-048>050-GAZ119-141-230000-
...Lake and Supplemental Coastal Observations...

STATION/POSITION TIME  TEMP    WIND        PRES    WAVE   SWELL
                       AIR SEA DIR/SP/G            HT/PER HT/PER/DIR
                 (UTC) (F)     (DEG/KT/KT) (MB)    (FT/S) (FT/S/D)
Winyah Bay       2245   78     190/ 11     1019.0S
Lake Murray      2220   80     180/  8/ 12 1016.9S
ACE Basin NERRS  2245   79     150/  3     1018.0F
Fort Pulaski     2300   78 79  160/ 10/ 13 1018.6
Sapelo Island    2300   80     160/ 11     1018.0

$$

ANZ835-935-AMZ111-154-330-350-352-354-370-450-454-472-230000-
...C-MAN and Buoy Observations...

STATION/POSITION TIME  TEMP    WIND        PRES    WAVE   SWELL
                       AIR SEA DIR/SP/G            HT/PER HT/PER/DIR
                 (UTC) (F)     (DEG/KT/KT) (MB)    (FT/S) (FT/S/D)
Buoy 41004       2300      75  200/  8/ 10 1019.2
Buoy 41008       2250   76 76  140/  6/  8 1018.0    3/ 9   3/110/ 9
Folly Beach CMAN 2300   76     180/ 12/ 13 1019.3F
Capers Nearshore 2308   77 78  210/ 10/ 12 1019.5F
Fripp Nearshore  2308   77 78  180/ 12/ 16 1018.2F


STATION/POSITION TIME  TEMP    WIND        PRES    WAVE   SWELL
                       AIR SEA DIR/SP/G            HT/PER HT/PER/DIR
                 (UTC) (F)     (DEG/KT/KT) (MB)    (FT/S) (FT/S/D)
5E St. Marys GA  2230      76                N/A     3/ 9
Frying Pan Buoy  2310          200/ 10/ 14 1019.3
Buoy 41025       2310   76     220/ 14/ 16   N/A
Cape Lookout NC  2300          210/  9/ 13 1019.3F
Buoy 41002       2310          180/ 10/ 12 1020.9
Buoy 41010       2300   77 78  120/ 12/ 16 1019.7
St Augustine FL  2300   77 78  160/ 14/ 16 1018.3R


$$




USA.gov is the U.S. government's official web portal to all federal, state and local government web resources and services.